Simultaneous Nadir Overpasses (SNOs) Predictions

Prediction of SNOs between GOES-17 and AQUA Satellite Orbit:

Table of predicted SNOs for the next 14.0 days since TLE Epoch: 10/17/2020
Index Date Time (GOES-17) GOES-17 Lat,Lon AQUA Lat,Lon Distance(km) Time Diff (sec)
1 10/17/2020 10:55:00 0.03,-137.21 0.66,-140.11 329.97 80
2 10/19/2020 10:45:28 0.03,-137.21 0.00,-137.16 6.13 80
3 10/21/2020 10:33:16 0.03,-137.19 -0.59,-134.19 340.89 80
4 10/21/2020 22:51:59 -0.02,-137.18 -0.48,-139.39 250.27 80
5 10/23/2020 22:42:26 -0.02,-137.17 0.12,-136.42 84.14 80
6 10/25/2020 22:30:14 -0.02,-137.14 0.79,-133.47 418.35 80
7 10/26/2020 10:48:49 0.01,-137.14 0.35,-138.62 168.36 80
8 10/28/2020 10:39:17 0.01,-137.12 -0.32,-135.67 165.69 80
9 10/28/2020 22:58:00 -0.01,-137.11 -0.80,-140.85 425.59 80
10 10/30/2020 10:27:04 0.01,-137.09 -0.93,-132.70 499.32 80
11 10/30/2020 22:45:47 -0.01,-137.08 -0.18,-137.89 92.04 80
